Weather History for Wichita, KS

Change the Weather History Date:

Thursday, October 4, 2012

  Actual Average Record
Temperature  
Mean Temperature 59 °F 63 °F  
Max Temperature 65 °F 74 °F 95 °F (1954)
Min Temperature 53 °F 51 °F 35 °F (1999)
Degree Days  
Heating Degree Days 6 5  
Month to date heating degree days 9 17  
Since 1 July heating degree days 25 60  
Cooling Degree Days 0 2  
Month to date cooling degree days 0 11  
Year to date cooling degree days 2255 1660  
Growing Degree Days 7 (Base 50)    
Moisture  
Dew Point 43 °F    
Average Humidity 67    
Maximum Humidity 86    
Minimum Humidity 47    
Precipitation  
Precipitation T in 0.11 in 1.37 in (1954)
Month to date precipitation 0.02 0.43  
Year to date precipitation 23.82 27.66  
Snow  
Snow 0.00 in 0.00 in 0.00 in (2007)
Month to date snowfall 0.0 0.0  
Since 1 July snowfall 0.0 0.0  
Since 1 September snowfall 0.0 0.0  
Snow Depth 0.00 in    
Sea Level Pressure  
Sea Level Pressure 30.16 in    
Wind  
Wind Speed 13 mph (NNE)    
Max Wind Speed 24 mph    
Max Gust Speed 30 mph    
Visibility 10 miles    
Events      
T = Trace of Precipitation, MM = Missing Value Source: NWS Daily Summary

Daily Weather History Graph

Daily Weather History Graph

Search for Another Location

Airport:

Trip Planner

Search our weather history database for the weather conditions in past years. The results will help you decide how hot, cold, wet, or windy it might be!

Date:

Astronomy

Oct. 04, 2012 Rise Set
Actual Time 7:28 AM CDT 7:07 PM CDT
Civil Twilight 7:02 AM CDT 7:33 PM CDT
Nautical Twilight 6:31 AM CDT 8:03 PM CDT
Astronomical Twilight 6:01 AM CDT 8:34 PM CDT
Moon 9:49 PM CDT (10/4) 11:41 AM CDT (10/4)
Length of Visible Light 12h 31m
Length of Day
11h 39m
Waning Gibbous, 82% of the Moon is Illuminated
Oct 4
Waning Gibbous
Oct 8
Last Quarter
Oct 15
New
Oct 21
First Quarter
Oct 29
Full

Hourly Weather History & Observations

Time (CDT) Temp. Dew Point Humidity Pressure Visibility Wind Dir Wind Speed Gust Speed Precip Events Conditions
12:53 AM 63.0 °F 52.0 °F 67% 29.93 in 10.0 mi South 10.4 mph - N/A   Scattered Clouds
1:53 AM 63.0 °F 52.0 °F 67% 29.94 in 10.0 mi South 11.5 mph - N/A   Scattered Clouds
2:53 AM 64.0 °F 52.0 °F 65% 30.01 in 10.0 mi North 8.1 mph - N/A   Mostly Cloudy
3:53 AM 59.0 °F 52.0 °F 78% 30.03 in 10.0 mi NW 6.9 mph - N/A   Scattered Clouds
4:53 AM 55.9 °F 51.1 °F 84% 30.04 in 10.0 mi SSE 5.8 mph - N/A   Scattered Clouds
5:20 AM 59.0 °F 46.4 °F 63% 30.10 in 10.0 mi North 15.0 mph 21.9 mph N/A   Mostly Cloudy
5:53 AM 57.9 °F 45.0 °F 62% 30.09 in 10.0 mi North 18.4 mph 23.0 mph N/A   Mostly Cloudy
6:53 AM 55.9 °F 43.0 °F 62% 30.13 in 10.0 mi North 17.3 mph 23.0 mph N/A   Mostly Cloudy
7:53 AM 54.0 °F 42.1 °F 64% 30.16 in 10.0 mi North 13.8 mph - N/A   Mostly Cloudy
8:53 AM 54.0 °F 42.1 °F 64% 30.20 in 10.0 mi North 19.6 mph 27.6 mph N/A   Mostly Cloudy
9:53 AM 55.0 °F 41.0 °F 59% 30.22 in 10.0 mi North 17.3 mph 28.8 mph N/A   Mostly Cloudy
10:53 AM 57.0 °F 41.0 °F 55% 30.24 in 10.0 mi NNE 17.3 mph 27.6 mph N/A   Mostly Cloudy
11:53 AM 57.9 °F 39.9 °F 51% 30.24 in 10.0 mi North 19.6 mph 26.5 mph N/A   Mostly Cloudy
12:53 PM 59.0 °F 39.9 °F 49% 30.24 in 10.0 mi NNE 18.4 mph 24.2 mph N/A   Scattered Clouds
1:53 PM 59.0 °F 39.0 °F 48% 30.22 in 10.0 mi North 18.4 mph 23.0 mph N/A   Mostly Cloudy
2:53 PM 55.9 °F 39.0 °F 53% 30.22 in 10.0 mi NNE 16.1 mph 23.0 mph N/A   Overcast
3:53 PM 55.9 °F 39.9 °F 55% 30.22 in 10.0 mi NE 10.4 mph - N/A   Overcast
4:53 PM 55.9 °F 39.0 °F 53% 30.22 in 10.0 mi NE 15.0 mph - N/A   Overcast
5:53 PM 55.0 °F 39.9 °F 57% 30.22 in 10.0 mi NE 11.5 mph - N/A   Overcast
6:53 PM 54.0 °F 39.0 °F 57% 30.23 in 10.0 mi NE 10.4 mph - N/A   Overcast
7:53 PM 54.0 °F 39.0 °F 57% 30.23 in 10.0 mi NE 11.5 mph - N/A   Overcast
8:53 PM 54.0 °F 39.0 °F 57% 30.23 in 10.0 mi NE 9.2 mph - N/A   Overcast
9:53 PM 54.0 °F 39.9 °F 59% 30.24 in 10.0 mi NE 4.6 mph - N/A   Overcast
10:53 PM 54.0 °F 39.9 °F 59% 30.25 in 10.0 mi NNE 4.6 mph - N/A   Overcast
11:53 PM 54.0 °F 41.0 °F 62% 30.25 in 10.0 mi NNE 8.1 mph - N/A   Overcast